sat.trackr.live / text

‹ back to catalog

STARLINK-34723

NORAD 64842 · 2025-152A

PAYLOAD ACTIVE UNKNOWN

§ Identity

Operator
Country
US
Launch date
2025-07-19
Launch site
AFWTR
Launch vehicle
Mass (kg)
RCS (m²)

Purposes: comms

External: N2YO · Heavens-Above · Gunter

§ Orbital elements

Epoch: 2026-05-25T02:52:21.508032Z

Period
95.64 min
Inclination
97.4509°
Eccentricity
0.0001863
Mean motion
15.05656069 rev/d
Perigee alt
548.2 km
Apogee alt
550.8 km
Semi-major
6,927.6 km
B*
1.6069e-4
RAAN
0.3967°
Arg perigee
77.4149°
Mean anomaly
282.7287°
Rev number
4,691

§ Raw data

STARLINK-347231 64842U 25152A   26145.11969338  .00002261  00000+0  16069-3 0  99922 64842  97.4509   0.3967 0001863  77.4149 282.7287 15.05656069 46914

JSON: /api/v1/satellites/64842 · /tle

For live sub-satellite position, see the globe view (requires WebGL).

§ Visibility from observer

Set your observer location to see the next 7 days of passes ≥ 10°. The values pass through the URL so the page stays shareable.

No JS? Fill the form by hand. The geolocation button needs JavaScript.